• In Austria
  • List of Countries
  • For 7 days
  • Water Temperature
  • Satellite Maps
  • Weather Map
  • News
  • Weather Widgets
  • user-avatar
    Login

    Hourly Weather Chetumal

    Today, 22 January, Monday

    Time Temperature Precipitation Wind Pressure Humidity
    00:00 +24°C° 0 mm 1 mps 758 mmHg 99%
    01:00 +24°C° 0 mm 1 mps 758 mmHg 99%
    02:00 +24°C° 0 mm 1 mps 758 mmHg 99%
    03:00 +23°C° 0 mm 1 mps 758 mmHg 99%
    04:00 +24°C° 0.1 mm 1 mps 758 mmHg 99%
    05:00 +24°C° 0.1 mm 1 mps 758 mmHg 99%
    06:00 +24°C° 0.1 mm 2 mps 758 mmHg 99%
    07:00 +25°C° 0.2 mm 2 mps 759 mmHg 95%
    08:00 +26°C° 0.2 mm 2 mps 759 mmHg 92%
    09:00 +27°C° 0.2 mm 2 mps 760 mmHg 88%
    10:00 +28°C° 0.4 mm 3 mps 759 mmHg 83%
    11:00 +29°C° 0.4 mm 3 mps 759 mmHg 78%
    12:00 +30°C° 0.4 mm 4 mps 759 mmHg 72%
    13:00 +31°C° 0 mm 3 mps 759 mmHg 67%
    14:00 +31°C° 0 mm 3 mps 758 mmHg 61%
    15:00 +33°C° 0 mm 3 mps 757 mmHg 56%
    16:00 +30°C° 0 mm 3 mps 758 mmHg 65%
    17:00 +28°C° 0 mm 2 mps 758 mmHg 75%
    18:00 +26°C° 0 mm 2 mps 758 mmHg 84%
    19:00 +25°C° 0 mm 2 mps 758 mmHg 89%
    20:00 +24°C° 0 mm 2 mps 759 mmHg 93%
    21:00 +24°C° 0 mm 1 mps 759 mmHg 98%
    22:00 +24°C° 0 mm 1 mps 759 mmHg 98%
    23:00 +24°C° 0 mm 1 mps 759 mmHg 98%

    Tomorrow, 23 January, Tuesday

    Time Temperature Precipitation Wind Pressure Humidity
    00:00 +23°C° 0 mm 1 mps 759 mmHg 99%
    01:00 +23°C° 0 mm 1 mps 759 mmHg 99%
    02:00 +23°C° 0 mm 1 mps 759 mmHg 99%
    03:00 +23°C° 0 mm 1 mps 758 mmHg 99%
    04:00 +23°C° 0 mm 1 mps 759 mmHg 99%
    05:00 +23°C° 0 mm 1 mps 759 mmHg 99%
    06:00 +23°C° 0 mm 1 mps 759 mmHg 99%
    07:00 +25°C° 0.1 mm 1 mps 760 mmHg 93%
    08:00 +26°C° 0.1 mm 1 mps 760 mmHg 88%
    09:00 +28°C° 0.1 mm 1 mps 761 mmHg 82%
    10:00 +29°C° 0.4 mm 2 mps 760 mmHg 75%
    11:00 +30°C° 0.4 mm 2 mps 760 mmHg 68%
    12:00 +32°C° 0.4 mm 2 mps 760 mmHg 60%
    13:00 +31°C° 0.7 mm 3 mps 759 mmHg 64%
    14:00 +30°C° 0.7 mm 3 mps 759 mmHg 68%
    15:00 +30°C° 0.7 mm 3 mps 758 mmHg 72%
    16:00 +28°C° 0.4 mm 3 mps 758 mmHg 79%
    17:00 +27°C° 0.4 mm 2 mps 759 mmHg 85%
    18:00 +25°C° 0.4 mm 2 mps 759 mmHg 92%
    19:00 +25°C° 0.1 mm 2 mps 760 mmHg 94%
    20:00 +24°C° 0.1 mm 2 mps 760 mmHg 96%
    21:00 +24°C° 0.1 mm 2 mps 761 mmHg 98%
    22:00 +24°C° 0 mm 2 mps 761 mmHg 98%
    23:00 +23°C° 0 mm 2 mps 761 mmHg 98%

    Day after tomorrow, 24 January, Wednesday

    Time Temperature Precipitation Wind Pressure Humidity
    00:00 +23°C° 0 mm 2 mps 761 mmHg 99%
    01:00 +23°C° 0 mm 2 mps 760 mmHg 99%
    02:00 +23°C° 0 mm 1 mps 760 mmHg 99%
    03:00 +23°C° 0 mm 1 mps 760 mmHg 99%
    04:00 +23°C° 0 mm 2 mps 760 mmHg 99%
    05:00 +23°C° 0 mm 2 mps 760 mmHg 99%
    06:00 +23°C° 0 mm 2 mps 761 mmHg 99%
    07:00 +24°C° 0.1 mm 2 mps 761 mmHg 97%
    08:00 +24°C° 0.1 mm 2 mps 762 mmHg 95%
    09:00 +25°C° 0.1 mm 2 mps 762 mmHg 93%
    10:00 +26°C° 0.3 mm 2 mps 762 mmHg 87%
    11:00 +27°C° 0.3 mm 2 mps 762 mmHg 81%
    12:00 +28°C° 0.3 mm 2 mps 761 mmHg 75%
    13:00 +28°C° 0.8 mm 2 mps 761 mmHg 77%
    14:00 +28°C° 0.8 mm 2 mps 760 mmHg 79%
    15:00 +28°C° 0.8 mm 2 mps 759 mmHg 80%
    16:00 +27°C° 0.4 mm 2 mps 760 mmHg 85%
    17:00 +25°C° 0.4 mm 2 mps 760 mmHg 91%
    18:00 +24°C° 0.4 mm 2 mps 760 mmHg 96%
    19:00 +24°C° 0.2 mm 2 mps 761 mmHg 96%
    20:00 +24°C° 0.2 mm 2 mps 762 mmHg 97%
    21:00 +24°C° 0.2 mm 2 mps 762 mmHg 98%
    22:00 +22°C° 0.2 mm 3 mps 762 mmHg 98%
    23:00 +22°C° 0.2 mm 3 mps 762 mmHg 98%

    25 January, Thursday

    Time Temperature Precipitation Wind Pressure Humidity
    00:00 +22°C° 0.2 mm 3 mps 762 mmHg 98%
    01:00 +22°C° 0.2 mm 3 mps 762 mmHg 98%
    02:00 +22°C° 0.2 mm 3 mps 761 mmHg 98%
    03:00 +22°C° 0.2 mm 3 mps 761 mmHg 98%
    04:00 +22°C° 0 mm 3 mps 761 mmHg 98%
    05:00 +22°C° 0 mm 3 mps 761 mmHg 98%
    06:00 +22°C° 0 mm 3 mps 762 mmHg 98%
    07:00 +24°C° 0.3 mm 3 mps 762 mmHg 96%
    08:00 +24°C° 0.3 mm 3 mps 763 mmHg 94%
    09:00 +25°C° 0.3 mm 3 mps 763 mmHg 92%
    10:00 +25°C° 0.8 mm 3 mps 763 mmHg 91%
    11:00 +26°C° 0.8 mm 3 mps 763 mmHg 89%
    12:00 +26°C° 0.8 mm 3 mps 762 mmHg 88%
    13:00 +26°C° 1 mm 3 mps 762 mmHg 89%
    14:00 +26°C° 1 mm 3 mps 761 mmHg 90%
    15:00 +26°C° 1 mm 3 mps 760 mmHg 90%
    16:00 +25°C° 1.1 mm 3 mps 760 mmHg 92%
    17:00 +25°C° 1.1 mm 3 mps 761 mmHg 95%
    18:00 +24°C° 1.1 mm 2 mps 761 mmHg 97%
    19:00 +24°C° 2 mm 3 mps 761 mmHg 97%
    20:00 +24°C° 2 mm 3 mps 762 mmHg 97%
    21:00 +22°C° 2 mm 3 mps 762 mmHg 98%
    22:00 +22°C° 1.5 mm 3 mps 762 mmHg 98%
    23:00 +22°C° 1.5 mm 3 mps 762 mmHg 98%

    26 January, Friday

    Time Temperature Precipitation Wind Pressure Humidity
    00:00 +22°C° 1.5 mm 3 mps 762 mmHg 98%
    01:00 +22°C° 1 mm 3 mps 761 mmHg 98%
    02:00 +22°C° 1 mm 3 mps 761 mmHg 98%
    03:00 +22°C° 1 mm 3 mps 760 mmHg 98%
    04:00 +22°C° 0.7 mm 3 mps 760 mmHg 98%
    05:00 +22°C° 0.7 mm 3 mps 761 mmHg 98%
    06:00 +22°C° 0.7 mm 3 mps 761 mmHg 98%
    07:00 +24°C° 0.7 mm 3 mps 761 mmHg 97%
    08:00 +23°C° 0.7 mm 4 mps 762 mmHg 96%
    09:00 +23°C° 0.7 mm 4 mps 762 mmHg 95%
    10:00 +25°C° 1.1 mm 4 mps 762 mmHg 94%
    11:00 +25°C° 1.1 mm 4 mps 762 mmHg 94%
    12:00 +25°C° 1.1 mm 3 mps 761 mmHg 93%
    13:00 +25°C° 1.3 mm 3 mps 761 mmHg 93%
    14:00 +25°C° 1.3 mm 3 mps 760 mmHg 93%
    15:00 +25°C° 1.3 mm 3 mps 759 mmHg 93%
    16:00 +25°C° 1 mm 3 mps 760 mmHg 94%
    17:00 +24°C° 1 mm 3 mps 760 mmHg 95%
    18:00 +24°C° 1 mm 3 mps 760 mmHg 97%
    19:00 +22°C° 0.5 mm 3 mps 760 mmHg 97%
    20:00 +22°C° 0.5 mm 3 mps 760 mmHg 98%
    21:00 +23°C° 0.5 mm 2 mps 761 mmHg 98%
    22:00 +23°C° 0.7 mm 2 mps 760 mmHg 98%
    23:00 +23°C° 0.7 mm 2 mps 760 mmHg 99%

    27 January, Saturday

    Time Temperature Precipitation Wind Pressure Humidity
    00:00 +23°C° 0.7 mm 2 mps 760 mmHg 99%
    01:00 +23°C° 0.3 mm 2 mps 760 mmHg 99%
    02:00 +23°C° 0.3 mm 2 mps 759 mmHg 99%
    03:00 +23°C° 0.3 mm 2 mps 759 mmHg 99%
    04:00 +23°C° 0.3 mm 2 mps 759 mmHg 99%
    05:00 +23°C° 0.3 mm 2 mps 759 mmHg 99%
    06:00 +23°C° 0.3 mm 2 mps 760 mmHg 99%
    07:00 +24°C° 0.9 mm 2 mps 760 mmHg 97%
    08:00 +25°C° 0.9 mm 2 mps 760 mmHg 95%
    09:00 +26°C° 0.9 mm 3 mps 761 mmHg 93%
    10:00 +26°C° 1.6 mm 3 mps 760 mmHg 93%
    11:00 +26°C° 1.6 mm 3 mps 760 mmHg 92%
    12:00 +26°C° 1.6 mm 3 mps 760 mmHg 92%
    13:00 +26°C° 1.9 mm 3 mps 759 mmHg 92%
    14:00 +26°C° 1.9 mm 3 mps 759 mmHg 92%
    15:00 +26°C° 1.9 mm 3 mps 758 mmHg 92%
    16:00 +25°C° 0.9 mm 3 mps 758 mmHg 94%
    17:00 +25°C° 0.9 mm 2 mps 758 mmHg 95%
    18:00 +24°C° 0.9 mm 2 mps 759 mmHg 97%
    19:00 +24°C° 0.3 mm 2 mps 759 mmHg 97%
    20:00 +24°C° 0.3 mm 2 mps 759 mmHg 98%
    21:00 +23°C° 0.3 mm 2 mps 760 mmHg 98%
    22:00 +23°C° 0.2 mm 2 mps 760 mmHg 98%
    23:00 +23°C° 0.2 mm 2 mps 760 mmHg 98%
    Show more